Weather History for Ord, NE

Change the Weather History Date:

Saturday, January 7, 2012

  Actual Average Record
Temperature  
Mean Temperature 28 °F 24 °F  
Max Temperature 40 °F 36 °F 63 °F (2003)
Min Temperature 15 °F 12 °F -8 °F (2004)
Degree Days  
Heating Degree Days 37    
Month to date heating degree days 211  
Since 1 July heating degree days 2864  
Cooling Degree Days 0    
Month to date cooling degree days 0  
Year to date cooling degree days 0  
Moisture  
Dew Point 17 °F    
Average Humidity 63    
Maximum Humidity 88    
Minimum Humidity 37    
Precipitation  
Precipitation 0.00 in 0.01 in 0.20 in (1912)
Month to date precipitation 0.07  
Year to date precipitation 0.07  
Sea Level Pressure  
Sea Level Pressure 30.23 in    
Wind  
Wind Speed 3 mph (NW)    
Max Wind Speed 8 mph    
Max Gust Speed 9 mph    
Visibility 10 miles    
Events      
T = Trace of Precipitation, MM = Missing Value Source: NWS Daily Summary

Daily Weather History Graph

Daily Weather History Graph

Search for Another Location

Airport:

Trip Planner

Search our weather history database for the weather conditions in past years. The results will help you decide how hot, cold, wet, or windy it might be!

Date:

Astronomy

Jan. 07, 2012 Rise Set
Actual Time 8:02 AM CST 5:21 PM CST
Civil Twilight 7:31 AM CST 5:52 PM CST
Nautical Twilight 6:56 AM CST 6:27 PM CST
Astronomical Twilight 6:23 AM CST 7:00 PM CST
Moon 4:06 PM CST (1/7) 6:35 AM CST (1/7)
Length of Visible Light 10h 21m
Length of Day
9h 18m
Waxing Gibbous, 97% of the Moon is Illuminated
Jan 7
Waxing Gibbous
Jan 9
Full
Jan 16
Last Quarter
Jan 23
New
Jan 30
First Quarter

Hourly Weather History & Observations

Time (CST) Temp. Windchill Dew Point Humidity Pressure Visibility Wind Dir Wind Speed Gust Speed Precip Events Conditions
12:53 AM 21.0 °F - 12.0 °F 68% 30.14 in 10.0 mi Calm Calm - N/A   Clear
1:53 AM 21.0 °F - 12.9 °F 71% 30.15 in 10.0 mi Calm Calm - N/A   Clear
2:53 AM 19.0 °F 12.3 °F 10.9 °F 71% 30.17 in 10.0 mi NW 4.6 mph - N/A   Clear
3:53 AM 15.1 °F 9.4 °F 10.0 °F 80% 30.17 in 10.0 mi NW 3.5 mph - N/A   Clear
4:53 AM 15.1 °F 6.4 °F 10.0 °F 80% 30.18 in 10.0 mi NW 5.8 mph - N/A   Clear
5:53 AM 18.0 °F - 10.9 °F 74% 30.19 in 10.0 mi Calm Calm - N/A   Clear
6:53 AM 15.1 °F 9.4 °F 10.0 °F 80% 30.22 in 10.0 mi NW 3.5 mph - N/A   Clear
7:53 AM 16.0 °F 8.8 °F 12.0 °F 84% 30.22 in 10.0 mi NW 4.6 mph - N/A   Clear
8:53 AM 19.9 °F 13.4 °F 15.1 °F 81% 30.24 in 10.0 mi NW 4.6 mph - N/A   Clear
9:53 AM 23.0 °F 17.0 °F 17.1 °F 78% 30.25 in 10.0 mi NW 4.6 mph - N/A   Clear
10:53 AM 30.0 °F 25.2 °F 19.9 °F 66% 30.28 in 10.0 mi NNW 4.6 mph - N/A   Overcast
11:53 AM 33.1 °F 28.7 °F 19.9 °F 59% 30.25 in 10.0 mi North 4.6 mph - N/A   Overcast
12:53 PM 37.0 °F - 19.9 °F 50% 30.22 in 10.0 mi Calm Calm - N/A   Mostly Cloudy
1:53 PM 39.0 °F - 16.0 °F 39% 30.20 in 10.0 mi Calm Calm - N/A   Overcast
2:53 PM 39.9 °F 37.8 °F 16.0 °F 38% 30.20 in 10.0 mi SSW 3.5 mph - N/A   Overcast
3:53 PM 39.9 °F - 17.1 °F 40% 30.22 in 10.0 mi Calm Calm - N/A   Overcast
4:53 PM 39.0 °F - 18.0 °F 43% 30.23 in 10.0 mi Calm Calm - N/A   Overcast
5:53 PM 36.0 °F 32.1 °F 21.0 °F 55% 30.26 in 10.0 mi West 4.6 mph - N/A   Overcast
6:53 PM 35.1 °F 29.3 °F 23.0 °F 61% 30.28 in 10.0 mi West 6.9 mph - N/A   Overcast
7:53 PM 34.0 °F 29.8 °F 24.1 °F 67% 30.30 in 10.0 mi WNW 4.6 mph - N/A   Overcast
8:53 PM 30.9 °F 25.2 °F 24.1 °F 76% 30.30 in 10.0 mi NW 5.8 mph - N/A   Overcast
9:53 PM 30.9 °F 26.2 °F 25.0 °F 79% 30.31 in 10.0 mi NW 4.6 mph - N/A   Overcast
10:53 PM 28.9 °F 25.2 °F 24.1 °F 82% 30.31 in 10.0 mi WNW 3.5 mph - N/A   Overcast
11:53 PM 32.0 °F - 26.1 °F 79% 30.31 in 10.0 mi Calm Calm - N/A   Overcast